sat.trackr.live / text

‹ back to catalog

STARLINK-6357

NORAD 56783 · 2023-078S

PAYLOAD ACTIVE UNKNOWN

§ Identity

Operator
Country
US
Launch date
2023-05-31
Launch site
AFWTR
Launch vehicle
Mass (kg)
RCS (m²)

Purposes: comms

External: N2YO · Heavens-Above · Gunter

§ Orbital elements

Epoch: 2026-09-20T22:00:03.000096Z

Period
95.47 min
Inclination
70.0010°
Eccentricity
0.0003917
Mean motion
15.08282191 rev/d
Perigee alt
538.7 km
Apogee alt
544.2 km
Semi-major
6,919.6 km
B*
-1.8706e-4
RAAN
192.1376°
Arg perigee
237.0636°
Mean anomaly
309.7024°
Rev number
567

§ Raw data

STARLINK-63571 56783U 23078S   26263.91670139 -.00003008  00000+0 -18706-3 0  99912 56783  70.0010 192.1376 0003917 237.0636 309.7024 15.08282191  5675

JSON: /api/v1/satellites/56783 · /tle

For live sub-satellite position, see the globe view (requires WebGL).

§ Visibility from observer

Set your observer location to see the next 7 days of passes ≥ 10°. The values pass through the URL so the page stays shareable.

No JS? Fill the form by hand. The geolocation button needs JavaScript.